FENGYUN 1C DEB

Satellite information

Favourite Embed

Satellite Type and Status

DEBRISIN ORBIT

Key statistics

Satellite FENGYUN 1C DEB at a glance.

Uptime

9661

Days in orbit

Revolutions

≈ 14.2

Per day

Orbit

SSO

Sun Synchronous Orbit

Inclination

98.6

Latest

Satellite identification and parameters

Extended collection of information and parameters for FENGYUN 1C DEB.

Object identification

Identified? True

Debris? True

Object name: FENGYUN 1C DEB

International designator: 1999-025CQM

Object number (NORAD): 32095

Object ID (CCSDS): 32095

Country: PEOPLES REPUBLIC OF CHINA (PRC)

Current information (Y/N): Y

RCS size: SMALL

Orbital parameters

Period: 101.698 minutes

Inclination: 98.6461 deg

SMA: 7217.213 km

Apoapsis: 894.803 km

Periapsis: 783.353 km

RAAN: 310.0354 deg

Eccentricy: 0.00772111

Argument of periapsis: 246.3641 deg

Mean anomaly: 112.9415 deg

Mean motion: 14.1595189 rev/day

Mean motion (dot): 0.00000849 rev/day2

B* drag term: 0.00044006203 1/REarth

Two-line elements (TLE)

Creation date: Oct. 20, 2025, 2:10 a.m.

Reference frame: TEME

Reference center: EARTH

Epoch: Oct. 19, 2025, 7:47 p.m. UTC

TLE line 0: 0 FENGYUN 1C DEB

TLE line 1: 1 32095U 99025CQM 25292.82442967 .00000849 00000-0 44006-3 0 9994

TLE line 2: 2 32095 98.6461 310.0354 0077211 246.3641 112.9415 14.15951890940543

Live tracking on map

Real-time ground track for satellite FENGYUN 1C DEB.

In-orbit conjunctions

A list of the most updated potential collisions computed for object FENGYUN 1C DEB.

Target Orbit TCA Probability of collision Miss distance Type
COSMOS 1275 DEB LEO 2025-07-19 03:53:05 0.0001665256 207.0 (m) DEBRIS
CZ-6A DEB LEO 2025-05-05 16:57:57 0.0001687178 6.0 (m) DEBRIS
TECHSAT 1B SSO 2024-12-20 15:33:16 0.0001176198 871.0 (m) PAYLOAD

Associated space launch

Chinese polar orbiting meteorological satellite

FENGYUN 1C DEB was lifted into orbit during the mission ‘Long March 4B | Feng Yun 1C’, on board a Long March 4B space rocket.

The launch took place on May 10, 1999, 1:33 a.m. from Launch Complex 7.

For more information about the launch, click the button.

Launch to space Long March 4B | Feng Yun 1C
Long March 4B | Feng Yun 1C

Agency: N/A

Status: Launch Successful

Launch date: May 10, 1999, 1:33 a.m. UTC

Rocket: Long March 4B

Launch pad: Launch Complex 7

Location: Taiyuan Satellite Launch Center, People's Republic of China

...

Latest news about this satellite

There are no fresh news available about this satellite. Check back as we update our databases every day.


Newsletter sign-up

Weekly statistics, charts and insights to help you stay on top of the space industry.